Tracking 32139 objects as of 18-Nov-2025
HD Live streaming from Space Station
objects crossing your sky now

PRAETORIAN SDA_614

Track PRAETORIAN SDA_614 now!
10-day predictions


NORAD ID: 65577
Int'l Code: 2025-203N
Perigee: 948.1 km
Apogee: 960.0 km
Inclination: 81.3 °
Period: 104.0 minutes
Semi major axis: 7325 km
RCS: Unknown
Launch date: September 10, 2025
Source: United States (US)
Launch site: AIR FORCE WESTERN TEST RANGE (AFWTR)
Your satellite tracking list
Your tracking list is empty




NASA's NSSDC Master Catalog

Two Line Element Set (TLE):
1 65577U 25203N   25321.19089481  .00000080  00000-0  60779-4 0  9996
2 65577  81.3027 207.1366 0008096  48.1803 312.0044 13.84806285  9373
Source of the keplerian elements: AFSPC